[[{"header":{"parameterUnit":"m.s-1","parameterCategory":1,"la1":30.2991,"la2":30.254,"lo1":-89.0895,"lo2":-89.0444,"dy":0.0017,"dx":0.0017,"nx":28,"ny":28,"refTime":"2025-06-17T09:00:00:Z","depth":0,"parameterNumber":2,"parameterNumberName":"U-component_of_WINDS"},"data":[0,0,0,0,0,0,0,0,0,0,0,0,0,0,0,0,0,0,0,0,0,0,0,0,0,0,0,0,0,0,0,0,0,0,0,0,0,0,0,0,0,0,0,0,0,0,0,0,0,0,0,0,0,0,0,0,0,0,1.2181,1.218,0,1.2068,1.2066,1.2065,1.194,1.1938,1.1936,1.1934,1.1817,1.1816,1.1814,0,0,0,0,0,0,0,0,0,0,0,0,0,1.2288,1.2287,1.2181,1.218,1.2179,1.2068,1.2066,1.2065,1.194,1.1938,1.1936,1.1933,1.1818,1.1816,1.1814,0,0,0,0,0,0,0,0,0,0,0,0,0,1.2215,1.2287,1.2182,1.2103,1.2095,1.2068,1.2066,1.2064,1.194,1.1938,1.1935,1.1932,1.1818,1.1816,1.1814,1.1855,0,0,1.1807,1.1806,0,0,0,0,0,0,0,0,1.2219,1.2211,1.2116,1.2108,1.2099,1.2015,1.2061,1.1994,1.1941,1.1999,1.1934,1.1931,1.1885,1.1877,1.1862,1.185,1.1845,1.1807,1.1806,1.1805,1.1804,0,0,0,0,0,0,0,1.2225,1.2215,1.2136,1.2115,1.2104,1.2073,1.2059,1.2048,1.1959,1.1994,1.1984,1.1973,1.188,1.1864,1.1858,1.1843,1.1807,1.1805,1.1804,1.1803,1.1857,1.1859,0,0,0,0,0,0,1.2242,1.2221,1.214,1.2133,1.2154,1.2073,1.2058,1.2045,1.1959,1.1943,1.1975,1.1967,1.1869,1.1861,1.1854,1.1895,1.1805,1.1803,1.1802,1.1854,1.1857,1.186,0,0,0,0,0,0,1.2245,1.2236,1.2144,1.2174,1.216,1.2074,1.206,1.2044,1.2028,1.1944,1.1928,1.1976,1.1867,1.1857,1.1855,1.1889,1.1802,1.18,1.1851,1.1855,1.1859,1.1979,0,0,0,0,0,0,1.2248,1.2238,1.2253,1.2175,1.2159,1.2149,1.2062,1.2044,1.2025,1.2014,1.194,1.1926,1.1864,1.1859,1.1853,1.1884,1.1798,1.1847,1.1853,1.1857,1.1971,1.1986,1.1999,0,0,0,0,0,1.2252,1.2292,1.2255,1.2246,1.2177,1.2152,1.2142,1.207,1.2028,1.2042,1.1988,1.1928,1.1887,1.186,1.1852,1.1883,1.1845,1.1851,1.1857,1.1965,1.1983,1.1999,0,0,0,0,0,0,1.2376,1.228,1.2238,1.2253,1.2212,1.213,1.2146,1.2092,1.2061,1.2052,1.1964,1.1948,1.1957,1.192,1.1892,1.1918,1.1857,1.1862,1.1942,1.1958,1.1972,1.198,1.1797,0,0,0,0,0,1.2405,1.2393,1.231,1.2331,1.2312,1.2234,1.222,1.2168,1.2121,1.2103,1.2048,1.2005,1.1981,1.1968,1.1942,1.1965,1.1946,1.1983,1.1997,1.2008,1.2013,1.2021,1.2035,1.188,1.188,1.188,0,0,1.2465,1.2411,1.2409,1.2355,1.2316,1.2305,1.2219,1.2211,1.2202,1.2101,1.2096,1.2055,1.2,1.2011,1.2013,1.198,1.2052,1.2016,1.2026,1.2025,1.2029,1.2043,1.2057,1.1884,1.1883,1.1883,0,0,1.2567,1.2527,1.2539,1.2502,1.2444,1.2391,1.2395,1.2321,1.229,1.2283,1.2207,1.2194,1.2156,1.212,1.2096,1.2184,1.2126,1.2178,1.225,1.2259,1.2271,1.2281,1.2311,1.2323,1.2183,1.2183,1.2184,0,1.2649,1.2629,1.2552,1.2548,1.2526,1.2434,1.2446,1.2413,1.2351,1.2337,1.2301,1.225,1.2207,1.2207,1.2228,1.2213,1.2213,1.2185,1.2275,1.2285,1.2294,1.2321,1.2332,1.219,1.2189,1.2188,1.2188,0,1.2731,1.2719,1.2736,1.2677,1.2657,1.2661,1.2583,1.2572,1.2522,1.2472,1.2466,1.241,1.2371,1.2367,1.2318,1.236,1.2341,1.2292,1.2229,1.2316,1.234,1.235,1.2199,1.2197,1.2195,1.2193,0,0,1.2909,1.2807,1.2814,1.2786,1.2715,1.2703,1.2702,1.2664,1.2655,1.2614,1.261,1.258,1.2533,1.2507,1.2452,1.246,1.2531,1.2409,1.2407,1.2433,1.2571,1.2607,1.2621,1.2492,1.2494,1.2496,1.2575,0,1.2998,1.2992,1.2921,1.2934,1.2921,1.2833,1.2831,1.2787,1.2741,1.2722,1.267,1.2649,1.259,1.2573,1.2577,1.2522,1.2557,1.2515,1.2487,1.2486,1.2502,1.2634,1.2673,1.275,1.2584,1.2585,1.2586,0,1.3102,1.3067,1.3079,1.3006,1.2998,1.2998,1.2956,1.2939,1.2887,1.2852,1.2822,1.2761,1.2753,1.2695,1.2682,1.2655,1.2639,1.261,1.2611,1.2605,1.2541,1.263,1.2773,1.2785,1.2601,1.26,1.2599,0,1.3229,1.3185,1.3185,1.3164,1.308,1.3082,1.3046,1.2991,1.2972,1.2935,1.2921,1.2884,1.2863,1.2835,1.2765,1.2729,1.276,1.2696,1.2729,1.2731,1.2739,1.274,1.2882,1.2732,1.2732,1.2731,1.2731,0,1.3335,1.3345,1.3241,1.3241,1.3249,1.3168,1.3178,1.3134,1.3086,1.3075,1.2997,1.2989,1.2897,1.2877,1.2822,1.2819,1.2811,1.2782,1.2767,1.2788,1.2792,1.2776,1.2768,1.2734,1.2734,1.2733,1.2733,0,1.3478,1.3409,1.3403,1.3324,1.3304,1.3313,1.3244,1.3241,1.3189,1.3176,1.3168,1.3087,1.306,1.2987,1.2942,1.2904,1.2916,1.2889,1.2934,1.2924,1.2962,1.2959,1.3097,1.3111,1.2954,1.2956,1.2957,0,1.355,1.3555,1.3476,1.3464,1.3432,1.3413,1.3392,1.3312,1.3294,1.3233,1.3237,1.3204,1.3173,1.3133,1.3069,1.3034,1.3004,1.3055,1.2998,1.3019,1.3003,1.3003,1.3002,1.3068,1.307,1.3071,1.3073,0,1.3684,1.3649,1.3623,1.3585,1.3563,1.3529,1.349,1.3484,1.3394,1.3377,1.3348,1.3324,1.3277,1.3245,1.3198,1.3161,1.3101,1.3091,1.3097,1.3118,1.3143,1.3129,1.2967,1.3088,1.3087,1.3086,1.3085,1.3084,1.3792,1.3793,1.3737,1.371,1.3672,1.3637,1.363,1.3577,1.3552,1.3507,1.3461,1.3437,1.3382,1.3314,1.3281,1.326,1.3229,1.3238,1.3239,1.3243,1.3252,1.3148,1.3251,1.3251,1.325,1.325,1.3249,0,1.3922,1.3881,1.3857,1.3805,1.3784,1.373,1.3684,1.3669,1.3649,1.3604,1.3575,1.3541,1.3508,1.3442,1.3403,1.3399,1.3371,1.3391,1.339,1.3382,1.3282,1.3281,1.3415,1.3415,1.3415,1.3415,1.3415,1.3415,1.3986,1.3983,1.3942,1.3919,1.3877,1.3854,1.3832,1.3799,1.3762,1.3728,1.37,1.3657,1.3602,1.3559,1.3526,1.3507,1.3496,1.3525,1.3497,1.3405,1.3389,1.3375,1.3372,1.3524,1.3524,1.3598,1.3599,1.36]},{"header":{"parameterUnit":"m.s-1","parameterCategory":1,"la1":30.2991,"la2":30.254,"lo1":-89.0895,"lo2":-89.0444,"dy":0.0017,"dx":0.0017,"nx":28,"ny":28,"refTime":"2025-06-17T09:00:00:Z","depth":0,"parameterNumber":3,"parameterNumberName":"V-component_of_WINDS"},"data":[0,0,0,0,0,0,0,0,0,0,0,0,0,0,0,0,0,0,0,0,0,0,0,0,0,0,0,0,0,0,0,0,0,0,0,0,0,0,0,0,0,0,0,0,0,0,0,0,0,0,0,0,0,0,0,0,0,0,5.3067,5.3069,0,5.3284,5.3286,5.3288,5.3281,5.3278,5.3275,5.3273,5.3485,5.3493,5.3502,0,0,0,0,0,0,0,0,0,0,0,0,0,5.2634,5.2642,5.3066,5.3069,5.3072,5.3283,5.3286,5.3289,5.3282,5.3278,5.3275,5.3271,5.3482,5.3492,5.3502,0,0,0,0,0,0,0,0,0,0,0,0,0,5.2833,5.2644,5.3066,5.3094,5.3099,5.3283,5.3286,5.329,5.3283,5.3278,5.3274,5.3269,5.3479,5.3491,5.3504,5.3671,0,0,5.3542,5.3548,0,0,0,0,0,0,0,0,5.2822,5.2849,5.3087,5.3092,5.3098,5.3251,5.3211,5.3417,5.3284,5.3212,5.3272,5.3267,5.341,5.3428,5.3478,5.3681,5.369,5.3544,5.3551,5.3557,5.356,0,0,0,0,0,0,0,5.2808,5.2839,5.3152,5.309,5.3097,5.3092,5.3115,5.325,5.3333,5.3218,5.3218,5.3245,5.3412,5.3466,5.3483,5.3693,5.3543,5.3554,5.3562,5.3567,5.404,5.4044,0,0,0,0,0,0,5.279,5.2828,5.3145,5.3158,5.2946,5.3103,5.3129,5.3206,5.3332,5.3347,5.3248,5.3243,5.3447,5.3469,5.3491,5.3693,5.3557,5.3568,5.3576,5.4035,5.4041,5.4046,0,0,0,0,0,0,5.278,5.2818,5.3136,5.2993,5.3034,5.3115,5.3202,5.3213,5.3267,5.3355,5.3368,5.3289,5.3444,5.3473,5.3626,5.3701,5.3574,5.3586,5.4029,5.4037,5.4044,5.4101,0,0,0,0,0,0,5.2768,5.2815,5.2882,5.2995,5.3041,5.3272,5.3206,5.322,5.329,5.3286,5.3397,5.3411,5.3443,5.3607,5.3639,5.3716,5.3595,5.4023,5.4032,5.4041,5.4093,5.4109,5.4123,0,0,0,0,0,5.2753,5.2888,5.2886,5.2924,5.3128,5.3277,5.3302,5.334,5.3296,5.3363,5.3418,5.3407,5.3687,5.3623,5.3658,5.374,5.4018,5.403,5.404,5.4086,5.4106,5.4123,0,0,0,0,0,0,5.278,5.2904,5.2902,5.308,5.3168,5.3275,5.3361,5.336,5.3461,5.3452,5.3491,5.3516,5.3669,5.3719,5.3646,5.3907,5.3846,5.3865,5.3869,5.3889,5.3904,5.3888,5.3606,0,0,0,0,0,5.2807,5.2921,5.3021,5.3167,5.3212,5.3279,5.3345,5.3366,5.3457,5.3494,5.3561,5.3647,5.3754,5.3824,5.3928,5.4099,5.4121,5.4172,5.4187,5.42,5.4216,5.4307,5.433,5.4083,5.4083,5.4083,0,0,5.2863,5.2945,5.3014,5.3175,5.3246,5.3359,5.331,5.3433,5.3516,5.3511,5.3661,5.3712,5.3811,5.3973,5.4048,5.402,5.4288,5.4214,5.4223,5.4233,5.4321,5.4344,5.4365,5.4091,5.4089,5.4088,0,0,5.3024,5.3098,5.3228,5.3299,5.3408,5.3451,5.3481,5.3589,5.3624,5.3775,5.3773,5.387,5.4055,5.4124,5.4184,5.4367,5.4359,5.4399,5.448,5.4568,5.4587,5.4605,5.4668,5.4691,5.4414,5.4414,5.4414,0,5.3079,5.3254,5.3293,5.3417,5.3486,5.3489,5.3617,5.3684,5.3819,5.3865,5.3832,5.4062,5.4129,5.4307,5.4351,5.4399,5.4433,5.4387,5.4582,5.46,5.4617,5.4678,5.4702,5.4418,5.4418,5.4417,5.4417,0,5.3316,5.3436,5.3526,5.366,5.3739,5.3864,5.3918,5.3993,5.4005,5.405,5.4201,5.4281,5.4399,5.4443,5.4456,5.4621,5.46,5.4574,5.4515,5.4644,5.4701,5.4725,5.4424,5.4423,5.4421,5.442,0,0,5.3503,5.3655,5.3687,5.3747,5.3865,5.3957,5.4079,5.4198,5.426,5.4352,5.4454,5.4608,5.4584,5.4652,5.4672,5.4749,5.4886,5.4714,5.4716,5.4742,5.507,5.5089,5.5116,5.4881,5.4886,5.489,5.5062,0,5.3675,5.3899,5.3935,5.4129,5.4238,5.4241,5.4347,5.4428,5.4472,5.4568,5.4614,5.4723,5.4685,5.4725,5.4802,5.4854,5.4953,5.4841,5.4973,5.4978,5.4949,5.5147,5.5168,5.5327,5.5085,5.5089,5.5091,0,5.3908,5.4008,5.4214,5.4315,5.4362,5.4458,5.4568,5.466,5.4751,5.4776,5.4851,5.4861,5.4983,5.4917,5.5085,5.5008,5.5063,5.5096,5.5103,5.5117,5.5043,5.5165,5.5378,5.5402,5.5128,5.5125,5.5122,0,5.4022,5.4208,5.4355,5.4405,5.4527,5.4594,5.4647,5.4733,5.4801,5.4895,5.4939,5.5045,5.5103,5.5182,5.5219,5.5168,5.5383,5.5321,5.5405,5.5404,5.5451,5.5448,5.5676,5.5487,5.5486,5.5486,5.5485,0,5.4212,5.4337,5.4408,5.4498,5.4637,5.4675,5.481,5.486,5.4936,5.5033,5.5039,5.5128,5.5171,5.5266,5.5294,5.5427,5.5453,5.5475,5.5481,5.5475,5.5472,5.5512,5.5501,5.5492,5.5491,5.549,5.5489,0,5.4364,5.4417,5.4577,5.4679,5.4707,5.4804,5.4889,5.4974,5.5016,5.5138,5.5168,5.5233,5.5345,5.5388,5.5524,5.5543,5.5695,5.5693,5.5666,5.5668,5.575,5.5741,5.6012,5.6048,5.5835,5.5837,5.5839,0,5.4482,5.4579,5.4691,5.4758,5.4814,5.4921,5.499,5.5029,5.51,5.5209,5.528,5.5391,5.5483,5.566,5.5717,5.5819,5.5818,5.5906,5.5834,5.5824,5.5819,5.5813,5.5821,5.5919,5.5922,5.5923,5.5925,0,5.4685,5.4706,5.4808,5.4919,5.5002,5.509,5.5175,5.5228,5.5279,5.5358,5.5474,5.5545,5.5683,5.5792,5.5898,5.5947,5.5944,5.5947,5.5972,5.5967,5.5947,5.5957,5.5702,5.5941,5.5939,5.5938,5.5937,5.5937,5.4824,5.4909,5.5001,5.5113,5.5181,5.526,5.5345,5.5397,5.5496,5.5614,5.5629,5.5752,5.5835,5.5976,5.6029,5.6123,5.61,5.6136,5.6145,5.6153,5.6159,5.5932,5.6142,5.6142,5.6141,5.6141,5.6141,0,5.5027,5.5086,5.5188,5.5308,5.5395,5.5387,5.5479,5.5551,5.5661,5.574,5.583,5.596,5.6066,5.613,5.6234,5.6296,5.6297,5.6322,5.6318,5.6329,5.6174,5.6142,5.632,5.632,5.632,5.632,5.632,5.632,5.5143,5.5286,5.5317,5.5491,5.5548,5.5671,5.5724,5.5795,5.5859,5.6005,5.6094,5.6135,5.6207,5.6316,5.6411,5.6426,5.6464,5.6491,5.6505,5.6359,5.634,5.6323,5.6293,5.6499,5.6499,5.6652,5.6653,5.6654]}]]